Retour au catalogue

STARLINK-36956

ActifCommunicationsVLEO
NORAD 68009·PAYLOAD·🇺🇸 United States

Lancé Feb 27, 2026 depuis Vandenberg Space Force Base

Loading…

Prochains Passages (prochaines 24 heures)

TLE

FraisSource: CelesTrak SupGP

Époque: Sep 15, 2026, 02:40 UTC

1 68009C 26039Z   26258.11159722 -.00024237  00000+0 -87755-3 0  2586
2 68009  43.0041  59.1331 0002112 281.4197  72.9257 15.27600520    18

Suivez STARLINK-36956 en temps réel avec AllMySat

Download on the App Store